Location: Unspecified
(0.0000°N, 0.0000°E)
Time: 07:52:45
(UTC+00:00)

YUBILEINY - Pass Details

Date: 08 December 2017
Orbit: 1478 x 1508 km, 82.5° (Epoch: 20 April)

Event Time Altitude Azimuth Distance (km) Brightness Sun altitude
Rises 02:55:34 0° 173° (S) 4,609 ? -39.9°
Reaches altitude 10° 02:58:32 10° 168° (SSE) 3,630 ? -39.3°
Maximum altitude 03:06:59 54° 93° (E) 1,765 ? -37.4°
Drops below altitude 10° 03:15:26 10° 18° (NNE) 3,641 ? -35.6°
Sets 03:18:24 0° 14° (NNE) 4,624 ? -34.9°
